CZ-6A DEB, 64645

Orbit data source: Space-Track

CZ-6A DEB, 64645 is space debris in LEO originally from a launch on Tue, 06 Aug 2024 UTC launched from the Taiyaun Space Center, China (TSC). Debris objects in space refer to the collection of defunct objects orbiting the Earth. Examples of debris include non-operational satellites, rocket bodies, and fragments generated from explosions, collisions, or faulty payload assembly.

Loading next visibility...
Identifier
64645, 2024-140AEK
Orbit
LEO
Country
Flag of CNCN / PRC
Related business
Manufacturer
SAST
Mission
Spacecraft
Bus & Motor
Unknown
Mass
Unknown
Launch date (UTC)
2024-08-06 (1 year ago)
Launch vehicle
Unknown
Launch site
Taiyaun Space Center, China (TSC)
Object type
Payload
Rocket body
Debris
Shape & HBR
Unknown shape, 0.1 m
Radar Cross Section
Small (<0.1 m²)

Expand to show TLE details & history
Last TLE update: 1 day ago

TLE from 1 day ago
0 CZ-6A DEB
1 64645U 24140AEK 25354.20324284  .00001581  00000-0  82726-3 0  9993
2 64645  88.3156 256.3067 0094818  63.7763 297.3131 14.11516279 61896
Epoch: 2025-12-20T04:52Z
TLE epoch observation values (Epoch: 2025-12-20T04:52:40.181Z)
Latitude
-0.00001°
Longitude
94.10586°
Altitude
826.269 km
Speed
7.456 km/s
True Right ascension
17h 05m 13s
True Declination
0° 00' 00"
Sunlit
Object was in daylight at epoch
Visualization orbit readout
Latitude
Unknown
Longitude
Unknown
Altitude
Unknown
Speed
Unknown
Apparent Right ascension
Unknown
Apparent Declination
Unknown
Sunlit
N/A
Visualization observer readout
Local Sidereal Time
05:18:48
Azimuth
Unknown
Elevation
Unknown
Doppler factor
Unknown
Orbital elements
Apogee altitude
919.702 km
Perigee altitude
782.609 km
Semi-major axis
7,229.293 km
Eccentricity
0.00948
Inclination
88.3156°
RAAN
256.3067°
Arg. of periapsis
63.7763°
True anomaly
296.34247°
Mean anomaly
297.3131°
Eccentric anomaly
296.82831°
Mean motion
3.53101 °/min
Orbital period
101.95 mins
BSTAR
0.00082726
Loading maneuver chart data...
Computing Atmospheric mass density...
Loading historical data...
Loading historical data...
Loading historical data...
Loading historical data...
Loading historical data...
Loading historical data...
Loading historical data...

Documentation

Showing up to 5 results
|